Location: Newark
(25.6108°S, 54.5803°W)
Time: 22:25:28
(UTC+00:00)

Tiros 1 - Pass Details

Date: 31 October 2020
Orbit: 630 x 664 km, 48.4° (Epoch: 29 November)

Event Time Altitude Azimuth Distance (km) Brightness Sun altitude
Rises 17:22:50 0° 285° (WNW) 2,966 11.0 59.6°
Reaches altitude 10° 17:25:31 10° 271° (W) 2,066 10.4 59.0°
Maximum altitude 17:29:27 25° 216° (SW) 1,336 9.3 58.1°
Drops below altitude 10° 17:33:26 10° 160° (SSE) 2,094 9.7 57.3°
Sets 17:36:10 0° 147° (SSE) 3,014 10.3 56.7°
